WetterOnline ( https://www.wetteronline.ch )

Wetter aktuell Regen

Aktuelles Wetter: Zwiesel (613m)

6-stündlich | Neueste Meldungen
Ortszeit Temperatur Wetter
Mi, 19.06. 2:00 15.1° C wolkig
Di, 18.06. 20:00 24.7° C wolkig
Di, 18.06. 14:00 25.2° C leicht bewölkt
Di, 18.06. 8:00 18.5° C wolkenlos
Di, 18.06. 2:00 16.2° C wolkig
Mo, 17.06. 20:00 21.7° C wolkenlos
Mo, 17.06. 14:00 21.7° C bewölkt
Mo, 17.06. 8:00 17.1° C wolkenlos
Ortszeit Temperatur Wetter
Mi, 19.06. 3:30 13.4° C wolkig
Mi, 19.06. 3:20 13.4° C wolkig
Mi, 19.06. 3:10 13.4° C wolkig
Mi, 19.06. 3:00 13.8° C wolkig
Mi, 19.06. 2:50 13.8° C wolkig
Mi, 19.06. 2:40 13.5° C wolkig
Mi, 19.06. 2:30 14.1° C wolkig
Mi, 19.06. 2:00 15.1° C wolkig
Mi, 19.06. 1:30 16.1° C wolkig
Mi, 19.06. 1:00 15.6° C wolkig
Mi, 19.06. 0:30 16.1° C fast wolkenlos
Ortszeit Relative Feuchte Sichtweite
Mi, 19.06. 2:00 84% 24 km
Di, 18.06. 20:00 47% 55 km
Di, 18.06. 14:00 46% 50 km
Di, 18.06. 8:00 63% 45 km
Di, 18.06. 2:00 75% 50 km
Mo, 17.06. 20:00 54% 65 km
Mo, 17.06. 14:00 46% 60 km
Mo, 17.06. 8:00 70% 40 km
Ortszeit Relative Feuchte Sichtweite
Mi, 19.06. 3:30 91% 18 km
Mi, 19.06. 3:20 91% -
Mi, 19.06. 3:10 90% -
Mi, 19.06. 3:00 89% 20 km
Mi, 19.06. 2:50 89% -
Mi, 19.06. 2:40 90% -
Mi, 19.06. 2:30 88% 16 km
Mi, 19.06. 2:00 84% 24 km
Mi, 19.06. 1:30 78% 30 km
Mi, 19.06. 1:00 83% 20 km
Mi, 19.06. 0:30 80% 26 km
Ortszeit Niederschlagsmenge Niederschlagsart
Mi, 19.06. 2:00 0.0 l/m2 in 6 Std. -
Di, 18.06. 20:00 0.0 l/m2 in 12 Std. -
Di, 18.06. 14:00 0.0 l/m2 in 6 Std. -
Di, 18.06. 8:00 0.0 l/m2 in 12 Std. -
Di, 18.06. 2:00 0.0 l/m2 in 6 Std. -
Mo, 17.06. 20:00 0.1 l/m2 in 12 Std. -
Mo, 17.06. 14:00 0.1 l/m2 in 6 Std. Regen
Mo, 17.06. 8:00 0.0 l/m2 in 12 Std. -
Ortszeit Niederschlagsmenge Niederschlagsart
Mi, 19.06. 3:30 0.0 l/m2 in 1 Std. -
Mi, 19.06. 3:20 keine Meldung -
Mi, 19.06. 3:10 keine Meldung -
Mi, 19.06. 3:00 0.0 l/m2 in 1 Std. -
Mi, 19.06. 2:50 keine Meldung -
Mi, 19.06. 2:40 keine Meldung -
Mi, 19.06. 2:30 0.0 l/m2 in 1 Std. -
Mi, 19.06. 2:00 0.0 l/m2 in 1 Std. -
Mi, 19.06. 1:30 0.0 l/m2 in 1 Std. -
Mi, 19.06. 1:00 0.0 l/m2 in 1 Std. -
Mi, 19.06. 0:30 0.0 l/m2 in 1 Std. -
Ortszeit Stärke Spitze Richtung
km/h Bft. km/h Grad Sektor
Mi, 19.06. 2:00 7 2 22 110° O
Di, 18.06. 20:00 7 2 25 10° N
Di, 18.06. 14:00 7 2 22 210° SW
Di, 18.06. 8:00 2 1 17 350° N
Di, 18.06. 2:00 9 2 22 40° NO
Mo, 17.06. 20:00 9 2 28 50° NO
Mo, 17.06. 14:00 11 2 22 70° O
Mo, 17.06. 8:00 4 1 11 350° N
Ortszeit Stärke Spitze Richtung
km/h Bft. km/h Grad Sektor
Mi, 19.06. 3:30 2 1 6 20° N
Mi, 19.06. 3:20 2 1 - 20° N
Mi, 19.06. 3:10 4 1 - 110° O
Mi, 19.06. 3:00 0 0 7 - -
Mi, 19.06. 2:50 0 0 - 300° NW
Mi, 19.06. 2:40 4 1 - 130° SO
Mi, 19.06. 2:30 0 0 7 - -
Mi, 19.06. 2:00 7 2 11 110° O
Mi, 19.06. 1:30 7 2 11 50° NO
Mi, 19.06. 1:00 4 1 7 270° W
Mi, 19.06. 0:30 4 1 7 70° O
Ortszeit Untergrenze Bedeckung Gattung
total tief tief mittel hoch
Mi, 19.06. 2:00 9000 m 8/8 0/8 - - -
Di, 18.06. 20:00 2100 m 6/8 6/8 - - -
Di, 18.06. 14:00 1500 m 4/8 4/8 - - -
Di, 18.06. 8:00 - 0/8 0/8 - - -
Di, 18.06. 2:00 8400 m 7/8 0/8 - - -
Mo, 17.06. 20:00 8700 m 0/8 0/8 - - -
Mo, 17.06. 14:00 1500 m 7/8 7/8 - - -
Mo, 17.06. 8:00 - 0/8 0/8 - - -
Ortszeit Bedeckungsgrad in Achtel und Wolkenuntergrenze
Mi, 19.06. 3:30 8(7200m) 8(7800m)
Mi, 19.06. 3:20 8(7200m) 8(7800m)
Mi, 19.06. 3:10 7(7200m) 8(8100m)
Mi, 19.06. 3:00 4(7200m) 4(8100m) 8(9000m)
Mi, 19.06. 2:50 4(7200m) 4(8100m) 8(9000m)
Mi, 19.06. 2:40 8(9000m)
Mi, 19.06. 2:30 8(9000m)
Mi, 19.06. 2:00 8(9000m)
Mi, 19.06. 1:30 8(10500m)
Mi, 19.06. 1:00 7(10500m)
Mi, 19.06. 0:30 1(10500m)
Ortszeit Luftdruck NN (hPa) Tendenz (hPa in 3 Std.)
Mi, 19.06. 2:00 1014 + 0,1
Di, 18.06. 20:00 1012 - 0,3
Di, 18.06. 14:00 1013 - 1,1
Di, 18.06. 8:00 1017 - 0,1
Di, 18.06. 2:00 1018 - 0,3
Mo, 17.06. 20:00 1017 - 0,5
Mo, 17.06. 14:00 1019 - 0,7
Mo, 17.06. 8:00 1021 0,0
Ortszeit Luftdruck NN (hPa) Tendenz (hPa in 3 Std.)
Mi, 19.06. 3:30 1015 - 0,4
Mi, 19.06. 3:20 1015 keine Meldung
Mi, 19.06. 3:10 1015 keine Meldung
Mi, 19.06. 3:00 1014 - 0,2
Mi, 19.06. 2:50 1014 keine Meldung
Mi, 19.06. 2:40 1015 keine Meldung
Mi, 19.06. 2:30 1014 0,0
Mi, 19.06. 2:00 1014 + 0,1
Mi, 19.06. 1:30 1014 + 0,1
Mi, 19.06. 1:00 1014 + 0,2
Mi, 19.06. 0:30 1014 + 0,3
Ortszeit Schneehöhe (cm)
Mi, 19.06. 2:00 -
Di, 18.06. 20:00 -
Di, 18.06. 14:00 -
Di, 18.06. 8:00 -
Di, 18.06. 2:00 -
Mo, 17.06. 20:00 -
Mo, 17.06. 14:00 -
Mo, 17.06. 8:00 -
Ortszeit Schneehöhe (cm)
Mi, 19.06. 3:30 -
Mi, 19.06. 3:20 -
Mi, 19.06. 3:10 -
Mi, 19.06. 3:00 -
Mi, 19.06. 2:50 -
Mi, 19.06. 2:40 -
Mi, 19.06. 2:30 -
Mi, 19.06. 2:00 -
Mi, 19.06. 1:30 -
Mi, 19.06. 1:00 -
Mi, 19.06. 0:30 -
Link zu dieser Seite / Seite empfehlen

Das Wetter in ...